sat.trackr.live / text

‹ back to catalog

STARLINK-35212

NORAD 65496 · 2025-198E

PAYLOAD ACTIVE UNKNOWN

§ Identity

Operator
Country
US
Launch date
2025-09-05
Launch site
AFETR
Launch vehicle
Mass (kg)
RCS (m²)

Purposes: comms

External: N2YO · Heavens-Above · Gunter

§ Orbital elements

Epoch: 2026-09-20T21:19:38.991936Z

Period
93.85 min
Inclination
53.1612°
Eccentricity
0.0001813
Mean motion
15.34388956 rev/d
Perigee alt
461.5 km
Apogee alt
464.0 km
Semi-major
6,840.9 km
B*
7.5616e-4
RAAN
81.6386°
Arg perigee
79.7151°
Mean anomaly
280.4056°
Rev number
5,854

§ Raw data

STARLINK-352121 65496U 25198E   26263.88864574  .00025249  00000+0  75616-3 0  99932 65496  53.1612  81.6386 0001813  79.7151 280.4056 15.34388956 58544

JSON: /api/v1/satellites/65496 · /tle

For live sub-satellite position, see the globe view (requires WebGL).

§ Visibility from observer

Set your observer location to see the next 7 days of passes ≥ 10°. The values pass through the URL so the page stays shareable.

No JS? Fill the form by hand. The geolocation button needs JavaScript.